Weather History for Eldoret, Kenya

Change the Weather History Date:

Friday, October 11, 2013

  Actual Average Record
Temperature  
Mean Temperature 62 °F -  
Max Temperature 75 °F - - ()
Min Temperature 50 °F - - ()
Degree Days  
Heating Degree Days 2    
Growing Degree Days 12 (Base 50)    
Moisture  
Dew Point 52 °F    
Average Humidity 70    
Maximum Humidity 100    
Minimum Humidity 38    
Precipitation  
Precipitation 0.00 in - - ()
Sea Level Pressure  
Sea Level Pressure 30.25 in    
Wind  
Wind Speed 7 mph ()    
Max Wind Speed 22 mph    
Max Gust Speed -    
Visibility 6.2 miles    
Events      
T = Trace of Precipitation, MM = Missing Value Source: Averaged Metar Reports

Daily Weather History Graph

Daily Weather History Graph

Search for Another Location

Airport:

Trip Planner

Search our weather history database for the weather conditions in past years. The results will help you decide how hot, cold, wet, or windy it might be!

Date:

Astronomy

Oct. 11, 2013 Rise Set
Actual Time 6:22 AM EAT 6:28 PM EAT
Civil Twilight 6:01 AM EAT 6:49 PM EAT
Nautical Twilight 5:37 AM EAT 7:13 PM EAT
Astronomical Twilight 5:13 AM EAT 7:38 PM EAT
Moon 12:04 PM EAT (10/11) No Moon Set
Length of Visible Light 12h 47m
Length of Day
12h 06m
Waxing Crescent, 43% of the Moon is Illuminated
Oct 11
Waxing Crescent
Oct 12
First Quarter
Oct 19
Full
Oct 27
Last Quarter
Nov 3
New

Hourly Weather History & Observations

Time (EAT) Temp. Dew Point Humidity Pressure Visibility Wind Dir Wind Speed Gust Speed Precip Events Conditions
12:00 AM 57.2 °F 55.4 °F 94% 30.27 in 6.2 mi Calm Calm - N/A   Mostly Cloudy
1:00 AM 57.2 °F 53.6 °F 88% 30.27 in 6.2 mi ENE 6.9 mph - N/A   Mostly Cloudy
2:00 AM 55.4 °F 53.6 °F 94% - 6.2 mi Calm Calm - N/A   Scattered Clouds
4:00 AM 55.4 °F 53.6 °F 94% 30.21 in - East 6.9 mph - N/A   Clear
5:00 AM 53.6 °F 50.0 °F 88% 30.24 in - NE 9.2 mph - N/A   Clear
6:00 AM 50.0 °F 48.2 °F 94% 30.24 in - East 4.6 mph - N/A   Clear
7:00 AM 51.8 °F 51.8 °F 100% - 6.2 mi East 5.8 mph - N/A   Partly Cloudy
8:00 AM 59.0 °F 53.6 °F 82% 30.30 in 6.2 mi Calm Calm - N/A   Scattered Clouds
9:00 AM 66.2 °F 55.4 °F 68% 30.33 in 6.2 mi ENE 13.8 mph - N/A   Scattered Clouds
10:00 AM 69.8 °F 51.8 °F 53% 30.33 in 6.2 mi ENE 13.8 mph - N/A   Scattered Clouds
11:00 AM 71.6 °F 55.4 °F 57% 30.30 in 6.2 mi East 20.7 mph - N/A   Partly Cloudy
12:00 PM 71.6 °F 50.0 °F 46% 30.30 in 6.2 mi East 12.7 mph - N/A   Partly Cloudy
1:00 PM 73.4 °F 48.2 °F 41% 30.27 in 6.2 mi ENE 10.4 mph - N/A   Scattered Clouds
2:00 PM 75.2 °F 50.0 °F 41% 30.24 in 6.2 mi ENE 21.9 mph - N/A   Scattered Clouds
3:00 PM 75.2 °F 48.2 °F 38% 30.21 in 6.2 mi ESE 10.4 mph - N/A   Scattered Clouds
4:00 PM 75.2 °F 51.8 °F 44% 30.18 in 6.2 mi ENE 12.7 mph - N/A   Scattered Clouds
5:00 PM 73.4 °F 51.8 °F 47% 30.18 in 6.2 mi ENE 15.0 mph - N/A   Scattered Clouds
6:00 PM 69.8 °F 53.6 °F 56% 30.18 in 6.2 mi ENE 12.7 mph - N/A   Scattered Clouds
7:00 PM 62.6 °F 55.4 °F 77% 30.21 in 6.2 mi East 6.9 mph - N/A   Mostly Cloudy
8:00 PM 64.4 °F 53.6 °F 68% 30.21 in 6.2 mi East 8.1 mph - N/A   Mostly Cloudy
9:00 PM 60.8 °F 53.6 °F 77% 30.24 in 6.2 mi ENE 5.8 mph - N/A   Mostly Cloudy
10:00 PM 57.2 °F 53.6 °F 88% 30.27 in 6.2 mi Calm Calm - N/A   Mostly Cloudy
11:00 PM 59.0 °F 51.8 °F 77% 30.27 in 6.2 mi Variable 2.3 mph - N/A   Mostly Cloudy